GEFSCGP_con_cape1000_294.txt.gz
Probability
0 0 0 0 0 0 0 0 0 0 0 0 0 3 0 0 0 0 0 0 0 0 3 6 3 3 0 6 6 3 10 6 6 13 16 10 10 10 13 6 6 16 10 16
0 0 0 0 0 0 0 0 0 0 0 0 0 3 0 0 0 0 0 0 0 0 0 6 6 6 6 13 10 10 13 10 10 10 10 13 13 13 10 10 10 13 19 16
0 0 0 0 0 0 0 0 0 0 0 0 0 0 0 0 0 0 0 0 0 0 0 6 6 6 6 6 6 13 13 13 13 13 13 23 16 16 19 19 13 19 23 19
0 0 0 0 0 0 0 0 0 0 0 0 0 0 0 0 0 0 0 0 0 0 3 6 6 6 10 13 10 6 13 16 16 16 16 16 13 13 13 16 13 19 23 19
0 0 0 0 0 0 0 0 0 0 0 0 0 0 0 0 0 0 0 0 0 0 3 3 10 10 13 16 16 13 19 23 16 19 13 13 13 16 16 19 19 23 26 23
0 0 0 0 0 0 0 0 0 0 0 0 0 0 0 0 0 0 0 3 0 0 6 10 13 13 16 19 29 32 26 29 23 26 23 19 19 16 23 23 23 26 29 26
0 0 0 0 0 0 0 0 0 0 0 0 0 0 0 0 0 0 0 3 3 6 6 6 13 23 26 26 42 35 35 29 32 32 32 32 32 29 32 29 26 32 29 32
0 0 0 0 0 0 0 0 0 0 0 0 0 0 3 0 3 3 0 3 6 6 6 6 10 16 19 32 39 35 35 26 32 32 29 32 32 32 32 35 29 29 29 26
0 0 0 0 0 0 0 0 0 0 0 0 0 3 0 0 0 3 3 3 3 10 6 6 13 16 23 26 32 35 32 29 35 39 39 32 35 32 29 35 26 32 26 26
0 0 0 0 0 0 0 0 0 0 0 0 0 0 0 3 0 0 6 3 3 10 6 6 13 13 10 19 26 26 23 29 32 39 35 39 29 32 26 29 29 29 29 32
0 0 0 0 0 0 0 0 0 0 0 0 0 0 0 0 3 3 10 3 10 10 10 13 6 16 6 13 16 26 26 26 35 39 42 42 32 39 39 32 29 29 32 32
0 0 0 0 0 0 0 0 0 0 0 0 0 0 3 0 3 3 6 3 6 6 10 13 6 10 6 19 23 19 32 32 39 35 39 35 32 39 39 35 32 29 32 29
0 0 0 0 0 0 0 0 0 0 0 0 0 0 0 3 3 10 6 3 6 10 10 10 13 13 13 13 26 29 32 35 35 39 42 42 39 35 42 42 35 39 35 39
0 0 0 0 0 0 0 0 0 0 0 0 0 0 0 6 10 6 10 3 10 10 16 13 13 13 13 13 19 29 32 39 35 42 42 39 29 32 35 32 35 35 39 39
0 0 0 0 0 0 0 0 0 0 0 0 0 0 3 6 6 6 6 10 16 16 13 19 16 10 13 16 13 23 32 26 35 35 35 32 29 26 26 29 35 35 39 39
0 0 0 0 0 0 0 0 0 3 0 0 0 3 3 3 3 6 6 13 16 19 23 23 23 19 13 16 13 16 19 26 23 32 32 23 26 32 35 32 35 35 39 39
0 0 0 0 0 0 0 0 0 0 0 0 3 6 10 10 13 16 16 19 19 19 23 23 19 26 19 16 13 19 23 23 26 23 29 26 26 32 35 35 35 35 35 32
0 0 0 0 0 0 0 0 0 0 0 6 6 6 16 13 13 13 16 26 29 26 23 19 23 16 16 23 26 23 29 29 26 29 26 35 35 32 35 35 35 35 35 35
0 0 0 0 0 0 0 0 0 0 0 3 3 10 13 13 16 16 19 26 23 23 23 16 26 29 29 23 26 29 32 29 32 29 29 35 35 39 39 35 32 35 35 39
0 0 0 0 0 0 0 0 0 0 0 0 3 3 10 13 19 16 19 13 16 23 29 29 26 29 29 26 26 23 32 29 29 29 35 32 39 35 35 35 32 32 32 39
0 0 0 0 0 0 0 0 0 0 0 0 3 0 0 10 10 16 23 19 23 23 26 29 26 26 32 32 23 26 29 32 32 29 39 42 42 42 39 39 35 35 35 32
0 0 0 0 0 0 0 0 3 0 0 3 3 3 3 16 16 19 23 19 16 19 23 23 23 23 23 23 23 23 19 23 26 29 39 42 45 42 42 35 32 32 35 29
0 0 0 0 3 3 3 0 3 3 3 3 6 10 10 16 13 10 16 19 16 16 19 16 13 16 13 19 16 10 13 16 19 26 32 32 35 39 39 39 35 32 29 26
0 0 0 0 0 0 0 0 3 3 3 3 6 13 19 19 10 10 13 10 16 16 19 13 3 10 13 19 16 19 19 19 19 19 23 29 35 35 35 32 29 32 32 29
0 0 0 0 0 0 0 0 3 6 6 10 16 16 23 19 16 13 13 10 10 16 13 10 10 10 13 19 16 16 19 19 13 16 16 23 29 35 32 23 23 26 29 26
3 0 3 6 6 10 6 6 10 10 6 10 16 16 16 19 16 13 13 13 13 10 13 13 13 10 6 10 13 13 16 13 13 13 19 19 23 29 35 29 19 3 3 10

GEFSCGP_con_cape1000_300.txt.gz
Probability
0 0 0 0 0 0 0 0 0 0 0 0 3 3 3 3 3 3 0 3 3 3 3 3 3 3 3 3 0 0 0 0 0 0 0 3 0 0 3 3 3 3 10 10
0 0 0 0 0 0 0 0 0 0 0 0 0 0 0 3 3 0 0 0 3 0 0 3 3 3 3 3 0 0 0 0 0 0 0 0 0 3 3 6 10 10 13 16
0 0 0 0 0 0 0 0 0 0 0 0 0 0 0 0 0 0 0 0 0 0 0 3 3 3 3 3 0 0 0 0 0 0 0 6 6 6 6 10 10 10 13 13
0 0 0 0 0 0 0 0 0 0 0 0 0 0 0 0 0 0 0 0 0 0 0 3 3 3 3 3 0 3 0 0 0 0 0 6 6 10 10 10 10 10 10 10
0 0 0 0 0 0 0 0 0 0 0 0 0 0 0 0 0 0 0 0 0 0 0 3 3 3 3 3 3 3 3 0 0 3 3 6 6 10 6 10 10 6 6 6
0 0 0 0 0 0 0 0 0 0 0 0 0 0 0 0 0 0 0 0 0 0 0 0 3 6 3 3 10 6 3 0 3 3 6 6 6 3 13 10 10 6 6 3
0 0 0 0 0 0 0 0 0 0 0 0 0 0 0 0 0 0 0 0 0 0 0 0 3 6 10 6 6 6 3 3 3 3 6 3 3 6 6 10 10 6 6 10
0 0 0 0 0 0 0 0 0 0 0 0 0 0 0 0 0 3 3 0 0 0 0 0 3 6 6 6 6 6 3 3 3 3 3 3 10 10 10 10 10 6 10 10
0 0 0 0 0 0 0 0 0 0 0 0 0 0 0 0 3 3 3 3 3 0 0 0 10 6 6 6 10 6 6 3 3 6 6 6 10 10 6 6 6 13 10 10
0 0 0 0 0 0 0 0 0 0 0 0 0 0 0 0 3 3 3 3 3 3 3 6 6 6 6 6 10 6 6 6 3 6 10 13 10 10 10 10 10 13 13 10
0 0 0 0 0 0 0 0 0 0 0 0 0 0 0 0 0 3 3 3 3 3 3 3 6 6 6 6 3 6 6 10 6 6 10 13 13 6 6 6 10 6 6 10
0 0 0 0 0 0 0 0 0 0 0 0 0 0 0 0 0 3 3 3 3 3 3 3 10 10 6 6 3 3 10 10 13 13 16 16 10 6 6 10 10 6 6 13
0 0 0 0 0 0 0 0 0 0 0 0 0 0 0 0 0 3 3 3 3 3 3 6 6 6 6 6 6 10 10 16 16 10 13 10 3 3 3 6 10 10 13 16
0 0 0 0 0 0 0 0 0 0 0 0 0 0 0 0 0 3 3 3 3 3 3 6 6 6 6 10 10 13 10 6 16 10 13 13 10 3 3 3 6 10 6 10
0 0 0 0 0 0 0 0 0 0 0 0 0 0 0 0 0 3 3 3 3 6 10 10 10 10 10 3 3 6 13 10 13 13 10 16 16 13 13 6 6 13 13 16
0 0 0 0 0 0 0 0 0 0 0 0 0 3 0 0 6 6 3 6 6 6 13 16 10 10 3 3 3 10 13 16 13 16 16 13 16 16 19 13 19 16 13 16
0 0 0 0 0 0 0 0 0 0 0 0 3 3 3 3 10 10 10 10 13 13 16 13 13 10 3 3 10 10 6 10 16 19 16 16 16 19 19 23 19 19 23 23
0 0 0 0 0 0 0 0 0 0 3 3 3 3 10 13 10 13 10 13 10 13 13 16 16 6 6 10 6 6 6 10 10 19 26 23 23 19 26 26 23 23 26 23
0 0 0 0 0 0 0 0 0 0 0 3 3 3 10 13 13 10 6 10 10 10 6 13 16 10 13 10 10 13 13 16 16 19 16 19 19 26 29 26 26 26 26 23
0 0 0 0 0 0 0 0 0 0 0 0 3 3 3 6 10 6 10 6 10 10 13 3 6 10 19 13 13 13 13 13 16 13 13 16 23 23 26 29 26 26 26 26
0 0 0 0 0 0 0 0 0 0 0 0 3 0 6 3 3 6 10 10 13 13 13 6 6 13 16 10 10 10 10 10 6 13 13 16 16 26 29 29 29 29 29 26
0 0 0 0 0 0 0 0 0 0 0 3 3 0 0 3 3 6 6 6 10 13 16 13 10 10 6 3 6 6 6 3 3 3 13 19 16 23 29 26 29 26 29 23
0 0 0 0 0 0 0 0 0 0 0 3 3 0 3 3 6 6 6 6 6 13 13 10 3 0 0 0 3 3 6 6 6 6 10 10 13 19 23 26 29 26 29 26
0 0 0 0 0 0 0 0 0 3 3 3 3 0 6 6 6 6 3 6 6 6 6 3 0 0 0 0 3 3 3 6 6 6 10 10 10 13 19 19 26 23 23 23
0 0 0 0 0 0 0 3 3 3 3 6 6 3 6 6 3 3 6 10 6 6 6 0 0 0 0 3 3 3 0 3 6 6 6 6 10 13 19 19 19 19 19 23
0 0 0 0 0 0 3 6 6 6 6 6 6 6 6 6 10 13 13 13 10 10 6 3 3 6 6 6 0 0 0 3 6 6 6 6 10 16 16 19 16 16 13 10

GEFSCGP_con_cape1000_306.txt.gz
Probability
0 0 0 0 0 0 0 0 0 0 0 0 0 0 6 10 10 6 10 6 13 16 10 23 19 19 32 39 52 52 48 58 58 48 39 39 32 29 39 32 32 42 52 48
0 0 0 0 0 0 0 0 0 0 0 0 0 0 0 10 13 10 16 10 10 13 19 23 26 26 32 42 52 52 55 58 55 55 55 42 48 32 26 35 42 39 42 45
0 0 0 0 0 0 0 0 0 0 0 0 0 0 3 10 13 16 16 16 6 10 26 29 32 32 29 39 55 45 52 58 55 58 45 39 42 48 35 32 39 45 42 45
0 0 0 0 0 0 0 0 0 0 0 0 0 0 3 0 13 13 19 19 13 10 26 29 32 32 32 35 42 52 58 58 58 55 48 39 48 32 35 42 39 48 48 45
0 0 0 0 0 0 0 0 0 0 0 0 0 0 0 3 3 13 16 16 16 23 23 29 35 39 32 32 29 52 61 61 58 55 55 61 39 42 39 42 48 45 45 42
0 0 0 0 0 0 0 0 0 0 0 0 0 0 0 6 0 3 13 16 16 26 29 32 39 42 42 32 32 42 61 71 71 58 52 58 48 52 45 52 48 48 48 42
0 0 0 0 0 0 0 0 0 0 0 0 0 0 0 3 10 10 10 19 19 26 32 39 42 42 45 48 32 55 61 77 71 61 55 55 58 55 55 52 48 52 42 45
0 0 0 0 0 0 0 0 0 0 0 0 0 0 3 6 6 13 19 16 19 19 35 39 42 45 52 52 55 52 58 68 65 61 65 61 68 58 55 58 55 58 48 39
0 0 0 0 0 0 0 0 0 0 0 0 0 6 10 0 0 13 23 23 26 23 23 35 42 45 45 55 48 55 55 61 65 61 65 65 58 58 52 58 55 52 48 45
0 0 0 0 0 0 0 0 0 0 0 0 0 3 6 13 13 13 13 19 23 19 23 29 39 42 45 48 55 52 55 58 55 58 55 52 55 55 61 61 52 52 52 48
0 0 0 0 0 0 0 0 0 0 0 0 0 3 10 10 6 13 19 29 23 26 19 29 29 45 48 52 45 52 52 52 52 52 55 52 48 52 55 58 52 55 58 55
0 0 0 0 0 0 0 0 0 0 0 0 3 6 3 6 6 10 19 35 32 29 23 26 29 39 45 52 48 48 52 55 58 58 58 58 55 52 52 52 55 55 55 55
0 0 0 0 0 0 0 0 0 0 0 0 3 3 3 3 3 10 35 35 32 26 19 23 32 48 55 48 52 45 48 52 52 52 52 52 45 52 52 55 55 55 52 48
0 0 0 0 0 0 0 0 0 0 0 3 3 3 6 6 6 10 26 29 29 26 29 26 39 48 55 55 58 55 52 52 48 52 52 48 45 52 52 55 52 52 52 52
0 0 0 0 0 0 0 0 0 3 3 3 3 3 6 3 10 16 26 29 32 29 35 42 48 52 45 52 58 55 55 58 55 55 55 52 52 52 52 48 55 55 55 52
0 3 0 0 0 0 0 0 0 0 6 3 3 6 3 3 13 16 23 29 29 39 45 45 55 48 45 52 48 45 55 58 61 58 55 55 55 55 52 52 52 55 55 55
0 6 0 0 0 0 0 0 0 0 3 3 3 3 3 3 13 16 16 19 26 35 39 48 55 58 58 55 52 52 52 58 55 55 58 55 58 52 52 52 52 52 55 52
0 10 0 0 0 0 0 0 0 0 0 0 0 0 3 6 10 13 13 19 32 29 35 42 52 55 55 52 48 52 52 55 55 52 48 48 48 48 52 52 48 48 48 52
3 10 0 0 0 0 0 0 3 0 0 0 0 3 6 6 10 13 13 23 29 29 29 42 48 48 52 55 52 48 52 45 48 48 45 45 42 42 48 48 52 52 48 48
3 6 3 0 0 0 0 3 3 0 3 0 0 6 6 10 10 13 19 26 29 35 35 35 35 39 52 52 52 45 45 42 48 45 42 45 45 42 42 45 48 48 48 48
3 3 3 3 0 0 0 0 0 3 3 6 3 6 10 10 10 13 16 32 35 35 42 39 45 48 48 48 45 45 45 39 39 42 45 45 45 45 42 42 45 48 45 42
0 0 3 0 0 0 0 0 0 10 16 6 6 6 10 10 13 16 23 32 35 39 39 42 45 45 45 42 42 42 39 35 39 42 42 45 45 42 42 42 45 42 42 39
3 0 0 0 0 3 3 0 3 6 10 10 10 13 16 10 10 19 23 26 29 32 39 39 42 39 39 42 35 32 32 29 26 32 32 35 35 42 39 39 39 39 42 39
0 3 3 3 3 6 6 6 6 6 10 13 13 19 16 13 16 23 26 26 23 32 35 32 32 39 35 32 32 26 29 29 29 29 29 32 29 29 29 35 32 35 35 39
0 0 0 6 6 3 10 10 10 16 19 16 16 19 16 19 19 23 23 26 29 29 23 29 29 29 32 29 29 26 29 26 26 26 23 26 23 23 26 29 29 23 29 23
0 3 3 0 3 3 6 6 6 10 16 16 13 16 16 19 19 16 19 23 29 23 19 23 23 19 16 19 23 26 26 26 26 23 23 23 19 23 23 19 19 16 16 13

GEFSCGP_con_cape1000_312.txt.gz
Probability
0 0 0 0 0 0 0 0 0 0 0 0 0 0 3 0 0 10 19 19 26 23 23 26 26 32 29 61 65 68 68 68 68 71 65 65 65 61 58 65 58 48 55 55
0 0 0 0 0 0 0 0 0 0 0 0 0 0 3 6 6 6 16 23 26 29 35 35 32 29 35 61 65 68 68 71 71 74 74 71 68 65 61 55 65 61 58 58
0 0 0 0 0 0 0 0 0 0 0 0 0 0 0 3 0 3 10 29 29 26 35 35 35 32 42 58 65 55 74 74 74 74 74 71 71 65 68 55 65 52 55 58
0 0 0 0 0 0 0 0 0 0 0 0 0 0 0 10 13 6 10 19 23 29 32 35 42 45 39 55 61 71 74 77 81 77 68 71 68 65 68 65 68 61 58 61
0 0 0 0 0 0 0 0 0 0 0 0 0 0 0 0 13 6 10 13 13 32 32 42 45 42 35 45 61 68 81 81 81 81 77 81 65 71 68 68 68 68 65 55
0 0 0 0 0 0 0 0 0 0 0 0 0 0 0 3 3 10 10 19 13 19 29 42 42 52 55 48 61 68 77 81 77 77 81 81 71 71 71 65 68 65 65 58
0 0 0 0 0 0 0 0 0 0 0 0 0 0 3 3 3 6 13 16 13 16 29 39 42 52 55 55 61 68 71 74 74 71 71 74 74 71 71 68 61 61 58 58
0 0 0 0 0 0 0 0 0 0 0 0 0 0 3 3 6 13 10 13 16 16 23 35 42 45 52 48 58 68 74 71 74 71 74 74 71 61 58 61 52 55 58 58
0 0 0 0 0 0 0 0 0 0 0 0 0 3 6 6 6 10 13 16 16 19 26 32 35 52 55 55 65 61 68 65 65 65 68 71 68 65 61 65 52 52 58 55
0 0 0 0 0 0 0 0 0 0 0 0 0 3 10 3 6 10 13 16 23 23 26 35 42 55 55 58 61 61 61 65 68 58 55 55 58 58 61 55 58 65 61 58
0 0 0 0 0 0 0 0 0 0 0 0 0 6 6 10 6 10 19 19 19 26 29 29 35 42 48 55 55 61 55 61 58 55 55 52 52 58 61 61 65 65 65 61
0 0 0 0 0 0 0 0 0 0 3 0 0 3 6 6 6 19 23 23 19 23 26 26 32 45 52 52 48 55 58 55 58 58 52 52 52 55 58 61 65 65 65 61
0 0 0 0 0 0 0 0 0 0 0 3 0 10 13 13 13 19 23 23 23 16 19 23 35 48 55 52 61 61 58 55 58 55 55 52 55 55 55 61 58 61 58 55
0 0 0 0 0 0 0 0 0 0 0 3 6 6 10 10 16 19 29 23 26 23 29 29 48 52 61 65 61 61 52 58 52 52 52 52 52 52 52 52 58 55 55 55
0 0 0 0 0 0 0 0 0 0 0 6 3 3 10 10 13 26 26 29 29 29 29 48 55 58 61 58 65 65 55 55 55 55 52 55 58 58 58 58 58 58 55 52
0 3 3 0 0 0 0 0 0 0 6 6 0 10 13 13 16 23 26 26 26 29 29 32 45 52 55 55 55 55 55 48 55 55 61 58 58 58 58 61 61 61 55 55
0 6 6 0 0 0 0 0 0 3 6 6 6 10 10 10 13 19 29 26 26 29 29 32 42 48 48 55 55 55 52 45 52 52 55 55 58 55 58 55 58 52 55 55
10 32 16 0 0 0 0 0 0 3 3 0 0 6 13 23 23 26 23 32 32 32 29 39 35 42 48 52 55 52 48 48 48 48 52 52 52 55 52 52 52 61 61 55
0 10 0 0 0 0 3 0 0 0 3 0 3 3 3 13 13 16 16 32 42 39 42 35 39 32 39 52 55 55 52 48 48 48 48 52 55 48 52 48 52 55 58 58
0 13 3 0 0 0 0 0 3 3 6 3 10 6 6 10 10 10 16 29 45 35 39 48 48 45 45 58 58 58 52 48 48 48 45 45 48 48 48 52 58 48 55 48
0 6 0 0 0 0 0 0 0 0 10 6 3 13 16 16 16 23 26 26 35 42 45 48 48 48 52 58 61 55 48 48 45 45 48 52 48 48 45 52 58 55 55 52
0 0 10 3 0 0 6 3 6 29 23 10 10 10 13 19 16 23 23 26 39 35 42 45 45 45 58 58 55 52 52 48 48 48 52 52 48 45 45 45 58 52 55 45
0 3 6 6 6 19 13 19 19 19 19 16 16 16 19 19 19 26 29 35 35 39 42 42 45 48 48 55 48 45 52 48 48 48 48 48 48 45 45 45 45 45 48 45
3 3 3 16 10 10 13 13 16 16 19 13 13 16 19 23 26 32 32 32 35 35 42 35 39 42 42 48 45 48 48 48 45 45 45 42 39 39 42 39 35 32 32 32
3 0 6 16 10 6 10 13 10 16 16 16 16 19 19 26 32 32 35 39 32 29 29 32 35 35 35 45 52 45 48 48 45 42 35 35 26 29 35 29 26 29 29 26
3 6 6 10 6 6 10 10 10 10 10 16 16 16 19 19 29 32 32 32 29 26 35 35 35 35 39 39 48 45 42 45 39 35 35 26 23 26 26 26 23 13 13 16

GEFSCGP_con_cape1000_318.txt.gz
Probability
0 0 0 0 0 0 0 0 0 0 0 0 0 0 0 0 3 6 6 6 6 10 6 6 10 10 16 13 13 19 23 16 13 19 16 13 13 16 19 13 13 10 10 19
0 0 0 0 0 0 0 0 0 0 0 0 0 0 0 0 6 6 6 6 6 6 6 13 13 13 19 16 19 26 19 19 23 19 16 13 13 16 13 16 13 16 19 19
0 0 0 0 0 0 0 0 0 0 0 0 0 0 0 0 6 6 6 6 6 6 6 13 19 19 23 23 26 32 23 19 19 16 13 13 13 16 16 19 16 13 16 19
0 0 0 0 0 0 0 0 0 0 0 0 0 0 0 0 6 6 6 6 6 10 13 10 16 19 23 23 32 29 32 29 23 19 19 16 13 16 16 16 19 16 16 19
0 0 0 0 0 0 0 0 0 0 0 0 0 0 0 0 3 3 3 6 6 10 13 13 19 23 26 32 35 35 29 29 32 32 16 19 19 19 23 16 19 23 23 23
0 0 0 0 0 0 0 0 0 0 0 0 0 0 0 3 3 3 3 10 13 10 13 13 23 26 32 29 35 39 35 32 39 35 26 19 19 23 23 26 19 26 26 16
0 0 0 0 0 0 0 0 0 0 0 0 0 0 0 3 0 3 3 6 13 10 10 16 19 26 35 32 39 35 39 32 39 39 32 23 26 23 29 29 23 26 26 26
0 0 0 0 0 0 0 0 0 0 0 0 0 0 3 3 0 6 6 13 13 10 13 16 23 23 32 35 39 39 35 39 42 39 29 29 32 29 26 26 23 19 26 26
0 0 0 0 0 0 0 0 0 0 0 0 0 0 3 0 3 6 13 16 13 16 13 13 19 19 26 35 29 35 42 45 39 42 29 32 29 29 26 29 29 29 32 39
0 0 0 0 0 0 0 0 0 0 0 0 0 3 3 3 6 13 13 19 16 19 13 13 13 13 19 32 29 32 39 42 39 32 32 35 26 29 29 29 32 35 39 35
0 0 0 0 0 0 0 0 0 0 0 0 0 0 3 3 13 16 19 13 10 10 16 13 13 16 16 29 29 32 35 35 35 35 32 32 35 32 35 35 35 35 35 29
0 0 0 0 0 0 0 0 0 0 0 0 0 0 0 3 3 13 13 6 6 6 6 10 10 10 16 23 26 32 32 35 35 35 32 32 39 35 35 35 29 29 29 29
0 0 0 0 0 0 0 0 0 0 0 0 0 0 0 3 10 6 6 6 6 6 13 10 10 10 16 23 23 29 32 32 35 32 32 29 32 35 39 32 32 29 29 29
0 0 0 0 0 0 0 0 0 0 0 0 0 3 6 6 10 6 6 3 13 10 13 10 10 10 13 19 23 29 35 29 32 26 26 26 32 32 39 39 35 39 32 32
0 0 0 0 0 0 0 0 0 0 0 0 3 3 6 6 6 6 6 6 10 13 16 13 13 10 13 23 19 19 26 29 26 29 29 26 26 26 29 29 29 35 32 32
0 0 0 0 0 0 0 3 3 3 10 3 0 3 3 6 3 6 10 10 10 10 13 13 13 13 13 19 23 23 26 26 29 26 29 29 29 26 26 23 26 29 29 29
0 0 0 0 0 0 0 0 3 0 0 3 3 6 6 10 6 6 6 13 13 16 13 10 13 16 16 23 26 26 26 26 23 29 29 29 26 26 26 29 29 29 29 29
0 0 0 0 0 0 0 0 3 6 3 6 3 6 6 6 10 10 19 16 16 23 23 16 13 19 19 19 23 29 26 26 23 23 32 32 29 23 23 29 29 29 29 29
0 0 0 0 0 0 0 0 0 3 3 6 10 10 6 6 16 16 16 19 19 19 19 19 13 16 23 23 23 26 26 26 29 26 32 29 29 29 26 29 23 26 26 26
0 0 0 0 0 0 0 6 3 0 3 3 6 10 10 6 10 10 13 19 16 16 16 19 19 23 26 19 23 19 26 29 32 29 26 26 26 32 32 29 26 26 29 29
0 0 0 0 0 0 0 3 0 0 0 0 0 3 6 6 6 13 23 16 13 23 19 16 16 19 19 19 26 19 19 29 29 29 26 26 32 29 32 32 32 26 26 26
0 0 0 0 0 0 6 10 6 3 0 0 3 6 13 16 23 19 13 13 16 19 16 16 16 16 16 19 16 16 16 23 26 32 26 26 32 26 29 29 26 23 23 26
0 0 0 0 0 6 3 6 6 0 0 10 13 16 19 19 26 23 19 16 16 16 13 19 13 13 16 13 16 16 16 16 23 26 23 23 19 19 19 19 23 23 23 23
0 0 3 3 3 6 6 10 3 3 10 10 10 16 23 19 23 23 19 16 16 16 19 13 13 16 16 16 16 16 19 23 16 19 19 19 19 19 19 19 19 19 19 19
0 3 3 3 3 6 6 10 6 6 6 10 10 16 23 19 23 23 23 16 16 13 16 13 13 13 6 6 10 10 16 16 16 16 19 19 16 16 16 16 19 16 13 10
0 3 3 3 3 3 6 6 10 10 10 6 13 19 19 19 19 19 16 13 13 13 13 13 16 13 6 6 10 10 13 13 13 13 10 13 13 13 13 13 10 6 10 3

GEFSCGP_con_cape1000_324.txt.gz
Probability
0 0 0 0 0 0 0 0 0 0 0 0 0 0 3 6 3 3 3 3 6 3 3 6 3 6 6 3 0 3 3 0 0 0 3 3 3 3 6 6 3 3 3 10
0 0 0 0 0 0 0 0 0 0 0 0 0 0 0 6 3 3 3 3 3 3 3 6 6 6 6 6 6 0 3 0 3 3 3 3 3 3 6 10 10 6 6 10
0 0 0 0 0 0 0 0 0 0 0 0 0 0 0 6 6 6 6 6 6 6 3 6 6 6 10 6 6 6 6 0 3 3 3 6 3 6 6 10 10 10 6 10
0 0 0 0 0 0 0 0 0 0 0 0 0 0 0 3 3 3 3 3 6 3 3 3 6 6 6 10 3 3 3 0 3 3 6 10 10 10 10 6 10 10 10 10
0 0 0 0 0 0 0 0 0 0 0 0 0 0 0 3 6 6 6 6 6 3 3 3 6 6 10 10 6 3 3 6 3 3 6 10 10 10 10 6 10 13 10 6
0 0 0 0 0 0 0 0 0 0 0 0 0 0 0 0 6 3 3 10 10 6 3 3 6 10 10 3 6 3 6 10 6 6 6 10 10 10 10 10 16 16 16 13
0 0 0 0 0 0 0 0 0 0 0 0 0 0 0 0 0 3 3 6 6 6 10 10 13 10 6 6 10 10 10 13 10 6 6 6 13 13 10 10 16 16 16 13
0 0 0 0 0 0 0 0 0 0 0 0 0 0 0 3 3 3 10 10 10 13 13 13 10 6 13 10 6 13 13 16 10 6 6 6 6 10 13 10 13 19 19 16
0 0 0 0 0 0 0 0 0 0 0 0 0 0 0 3 6 6 10 13 13 13 13 13 10 10 10 10 13 13 13 13 13 13 10 10 10 13 13 16 19 19 19 23
0 0 0 0 0 0 0 0 0 0 0 0 0 0 0 3 6 6 16 13 13 13 13 10 10 10 13 13 10 10 10 13 13 13 13 10 10 13 16 16 16 16 19 23
0 0 0 0 0 0 0 0 0 0 0 0 0 0 0 0 6 6 16 13 13 13 13 10 10 10 10 10 10 10 16 13 13 19 16 13 10 16 16 19 23 19 26 26
0 0 0 0 0 0 0 0 0 0 0 0 0 0 3 6 6 3 13 13 6 10 10 6 3 10 10 10 10 13 19 23 19 19 16 13 10 6 16 23 23 16 19 26
0 0 0 0 0 0 0 0 0 0 0 0 0 0 3 3 6 6 10 6 6 3 3 3 6 6 10 6 16 13 16 23 19 16 19 13 13 16 16 23 19 23 23 16
0 0 0 0 0 0 0 0 0 0 0 0 0 3 3 3 6 6 6 3 3 3 3 3 6 6 10 6 13 10 16 23 26 29 23 16 19 19 19 19 23 19 23 19
0 0 0 0 0 0 0 0 0 0 0 0 0 3 3 6 3 6 10 3 3 3 3 6 6 6 6 3 6 19 19 23 23 26 26 16 16 19 19 16 16 23 23 23
0 0 0 0 0 0 0 0 0 0 0 0 3 3 3 3 3 6 3 6 6 6 6 6 10 10 6 3 6 19 23 19 23 26 23 19 16 23 16 16 19 19 19 23
0 0 0 0 0 0 0 0 0 0 0 0 3 3 3 3 13 13 10 10 10 10 10 13 16 13 6 6 10 13 23 19 19 23 23 19 13 19 19 23 26 23 16 16
0 0 0 0 0 0 0 0 0 0 0 0 0 0 6 13 13 10 13 16 16 16 13 16 16 16 13 6 10 10 16 19 19 23 19 16 13 13 16 16 23 23 19 19
0 0 0 0 0 0 3 0 0 0 0 0 0 6 10 13 10 6 10 10 13 16 16 16 13 10 10 13 16 19 19 19 19 23 16 16 16 13 10 16 19 19 19 16
0 0 0 0 0 0 0 0 0 0 0 0 6 6 10 10 13 0 3 6 10 10 13 6 3 6 10 10 10 13 16 19 19 19 16 16 13 10 10 13 19 23 23 19
0 0 0 0 0 0 0 0 0 0 0 0 6 3 0 0 0 3 6 10 13 13 13 6 6 3 6 6 6 6 10 10 16 10 10 16 16 13 13 13 16 19 26 19
0 0 0 0 0 0 0 0 0 0 0 0 3 3 6 3 10 10 13 10 13 16 13 13 10 6 3 3 3 3 3 3 10 13 13 10 10 10 19 16 16 19 23 23
0 0 0 0 0 0 3 3 3 0 3 3 6 6 6 10 6 10 10 10 10 10 13 13 6 3 6 10 6 6 6 10 10 13 13 13 10 13 13 13 13 16 16 19
0 0 0 3 3 3 3 3 3 3 3 3 3 6 10 6 6 10 6 6 10 10 10 10 10 6 6 10 10 10 10 13 13 13 13 10 13 13 10 10 10 10 16 16
0 0 0 3 3 3 6 3 3 3 6 6 6 6 6 6 10 10 6 6 10 13 13 6 6 3 3 10 10 10 10 10 10 10 6 6 10 10 10 10 10 13 13 13
0 0 0 3 0 0 0 6 6 6 6 6 6 6 6 6 13 10 3 3 6 10 13 6 6 3 3 3 6 6 6 6 6 6 6 6 10 6 6 10 10 3 10 3

GEFSCGP_con_cape1000_330.txt.gz
Probability
0 0 0 0 0 0 0 0 0 0 3 3 6 3 10 16 10 10 10 10 13 16 10 16 19 23 29 39 48 55 55 65 61 55 48 48 45 45 42 39 45 45 42 42
0 0 0 0 0 0 0 0 0 3 3 3 3 3 6 16 13 10 10 6 6 10 16 23 23 26 45 52 52 52 58 52 61 58 55 55 45 39 35 32 45 48 45 45
0 3 0 0 0 0 0 0 3 3 3 3 3 0 13 13 13 13 10 10 10 10 19 35 35 45 45 55 55 48 58 61 58 58 48 52 52 42 29 45 42 39 45 39
0 0 0 0 0 0 0 0 0 3 3 3 0 3 10 10 10 10 19 19 16 16 13 35 42 42 52 48 52 55 61 65 61 61 55 45 48 42 42 48 39 42 45 39
0 0 0 0 0 0 3 0 3 3 3 0 0 0 3 10 6 16 16 23 19 19 19 32 32 45 45 52 52 52 55 61 61 61 65 65 55 42 35 39 48 48 52 48
0 0 0 0 0 0 3 6 6 0 0 0 0 0 3 10 13 16 19 19 19 23 19 19 29 39 42 48 48 48 58 58 61 61 55 58 58 55 55 55 52 45 42 42
0 0 0 0 0 0 0 0 0 0 0 0 0 0 6 16 10 13 19 19 19 16 23 23 26 39 52 55 48 52 55 58 55 55 58 61 58 58 58 52 52 52 32 42
0 0 0 0 0 3 0 0 0 0 0 0 0 0 13 19 16 16 19 19 16 16 19 23 32 42 55 58 55 52 58 55 55 55 55 52 55 55 45 52 45 52 42 35
0 0 0 0 0 0 0 0 0 0 0 0 0 16 16 23 19 23 23 19 16 19 26 32 29 39 52 55 52 52 58 58 55 52 55 55 52 55 45 48 48 39 42 39
0 0 0 0 0 0 0 0 0 0 0 0 0 0 16 26 29 26 26 23 19 16 19 23 35 39 45 52 52 55 55 52 52 48 48 42 52 45 48 55 55 55 48 55
0 0 0 0 0 0 0 0 0 0 0 0 0 0 6 19 26 32 26 19 19 16 13 16 29 42 55 55 55 58 52 52 48 48 48 42 45 45 48 52 48 48 55 55
0 0 0 0 0 0 0 0 0 0 0 0 0 13 13 19 35 39 23 19 16 19 13 23 26 39 45 52 52 52 52 48 45 48 45 45 48 55 48 45 45 48 48 45
0 0 0 0 0 0 0 0 0 0 0 0 0 13 16 23 29 32 29 29 19 19 16 13 13 26 32 45 48 45 45 45 48 48 45 42 48 45 48 48 52 48 52 45
0 0 0 0 0 0 0 0 0 0 0 0 3 10 19 29 29 26 26 29 23 29 29 29 29 32 29 42 42 45 48 48 48 48 42 42 42 42 42 45 52 48 48 42
0 3 3 3 3 3 3 3 0 0 0 3 3 10 13 23 29 23 26 23 19 26 29 32 32 26 32 35 45 52 45 48 48 52 45 45 42 42 42 45 42 45 42 35
3 6 3 3 0 3 3 6 6 3 3 6 13 13 23 26 29 35 32 23 23 29 32 26 26 32 35 42 42 42 48 48 52 52 52 48 45 42 42 45 42 39 39 35
3 16 3 0 3 3 3 6 10 13 10 16 16 19 26 32 32 42 39 29 32 35 32 29 29 32 35 42 48 45 45 48 48 52 52 52 45 45 45 35 35 35 35 32
10 6 3 0 3 0 6 10 10 10 6 16 23 23 16 29 42 35 32 35 32 32 29 29 35 35 32 35 45 45 45 45 42 48 48 48 48 45 39 35 32 35 32 32
10 13 0 0 0 0 6 6 6 10 6 16 19 16 19 32 42 29 29 32 45 48 35 35 35 26 32 29 35 39 39 35 35 45 45 45 45 42 42 32 35 35 39 35
0 10 0 0 0 0 10 6 13 16 10 13 13 19 35 35 26 32 29 35 42 45 42 39 39 35 35 35 39 39 39 39 35 35 35 32 35 35 39 32 35 39 39 32
0 3 0 0 0 0 6 10 6 3 16 13 19 26 29 35 35 35 35 35 32 35 35 29 35 35 39 39 39 42 39 35 29 26 29 39 32 35 35 32 32 32 29 32
3 0 3 0 0 3 10 10 16 16 32 26 35 29 32 32 32 32 32 32 32 32 26 26 35 39 39 35 29 32 32 26 23 23 29 32 35 26 26 32 32 29 29 32
3 3 3 10 10 10 10 10 13 10 13 29 32 32 29 26 29 29 35 29 26 23 23 19 26 32 32 32 35 23 29 26 23 26 26 29 29 23 23 23 23 23 26 26
6 6 6 6 6 3 3 3 3 6 10 19 26 19 23 26 26 29 29 32 26 26 23 19 23 19 23 29 26 26 26 26 23 23 26 32 32 23 19 19 16 16 16 16
6 6 6 10 3 3 3 3 3 6 10 10 10 19 19 26 19 19 19 23 26 16 13 13 16 23 23 29 29 32 29 26 26 26 23 29 23 19 19 13 13 13 16 13
3 3 6 6 13 3 3 3 3 10 10 10 13 19 19 16 19 19 16 19 16 13 13 13 16 23 26 26 26 26 29 26 26 26 19 19 16 23 19 16 13 13 13 6

GEFSCGP_con_cape1000_336.txt.gz
Probability
0 0 0 0 0 0 3 3 3 3 3 3 3 6 10 6 6 6 10 13 16 13 13 23 19 35 52 58 61 68 71 81 84 74 71 65 58 58 55 55 61 58 52 55
0 0 0 0 0 0 0 0 3 3 3 0 6 6 6 10 13 13 16 6 10 16 26 32 23 35 48 61 68 68 77 77 77 77 81 71 68 61 61 58 61 65 55 58
0 0 0 0 0 0 0 0 0 3 3 0 0 3 3 6 6 13 19 10 10 19 32 39 39 42 45 48 65 65 77 77 77 77 71 71 74 65 55 58 65 58 61 61
0 0 0 0 0 0 0 0 0 3 3 3 3 3 13 10 13 13 16 13 16 26 35 32 32 45 45 55 58 68 74 77 77 74 71 68 68 61 61 68 68 58 61 61
0 0 0 0 0 0 0 0 0 0 3 3 3 0 3 16 16 16 13 16 26 23 32 39 32 45 48 52 55 61 74 77 81 77 74 74 71 68 61 61 61 65 61 52
0 0 0 0 0 0 0 0 0 0 0 0 0 0 0 16 16 19 23 19 16 23 26 32 35 48 39 48 48 58 74 84 81 77 68 74 68 65 68 68 68 65 68 68
0 0 0 0 0 0 0 0 0 0 0 0 3 3 3 6 10 16 19 16 16 16 19 23 29 45 52 45 52 58 74 81 81 74 71 65 68 68 71 68 68 71 65 68
0 0 0 0 0 0 0 0 0 0 0 0 0 6 13 10 13 19 19 16 13 13 16 26 26 45 45 45 55 61 71 74 81 77 68 71 65 68 65 65 68 65 65 68
0 0 0 0 0 0 0 0 0 0 0 0 3 6 10 10 16 23 19 19 13 13 13 26 29 32 35 45 48 55 71 71 77 77 77 77 74 61 58 58 68 68 65 58
0 0 0 0 0 0 0 0 0 0 0 0 3 3 3 23 16 19 23 19 16 13 10 26 39 39 39 42 52 55 68 74 77 74 74 61 68 61 61 58 52 55 61 61
0 0 0 0 0 0 0 0 0 0 0 0 0 3 6 23 26 26 23 23 13 16 16 23 29 32 35 42 52 58 58 77 77 71 71 71 58 52 55 55 55 55 58 58
0 0 0 0 0 0 0 0 0 0 3 3 3 0 10 23 13 26 23 19 16 16 19 23 26 32 39 39 52 61 58 68 71 68 61 58 58 55 52 48 52 52 55 55
0 0 0 0 0 0 0 0 0 0 0 0 0 0 3 10 13 23 23 16 26 23 23 29 32 39 42 42 58 55 58 55 55 65 61 58 55 58 52 48 52 52 52 52
0 0 0 0 0 0 0 0 0 0 0 0 0 6 6 10 13 23 26 19 19 23 26 26 45 48 61 65 65 61 48 52 55 58 58 58 61 61 52 52 55 55 55 52
0 3 0 0 0 0 0 0 0 0 0 0 0 3 6 16 19 16 19 19 23 26 26 32 42 55 52 45 58 55 52 52 52 61 65 65 65 58 52 48 48 55 58 48
0 0 0 0 0 0 0 0 0 0 0 3 6 6 13 23 23 26 23 23 23 29 32 32 45 45 48 52 58 55 55 55 58 58 61 65 65 52 48 48 48 55 55 48
0 0 0 0 0 0 0 0 0 0 3 13 13 16 23 29 35 35 39 39 32 39 45 45 45 45 48 52 58 58 58 58 58 58 65 61 61 58 61 48 52 52 55 55
3 26 10 0 0 0 3 0 0 3 6 10 16 19 23 32 32 35 39 42 42 42 48 52 45 45 45 48 48 52 52 55 58 58 61 58 58 55 55 52 52 55 58 52
0 16 3 0 0 0 0 3 0 3 6 10 19 19 23 26 29 29 32 42 48 48 42 45 39 39 42 42 45 48 48 48 52 55 58 52 55 52 52 52 55 45 55 55
0 13 6 6 0 0 3 0 3 3 13 16 19 16 23 23 29 35 45 45 42 42 39 42 39 42 42 48 45 48 48 52 52 52 52 55 52 55 52 45 45 45 48 55
0 6 0 3 3 0 0 6 3 3 26 23 26 32 32 39 39 42 39 42 45 45 35 42 42 39 48 48 52 52 52 52 48 45 42 48 48 55 45 45 45 45 39 42
0 3 6 3 6 3 6 6 16 45 42 26 32 26 35 35 35 39 39 39 32 32 32 32 35 42 45 48 52 55 55 52 52 48 45 45 45 32 35 39 45 42 42 32
3 10 6 16 13 16 10 19 13 19 26 19 16 16 32 35 32 35 29 26 29 32 32 29 26 23 39 39 45 45 48 52 48 45 45 45 45 42 35 32 35 32 35 26
3 6 13 16 6 3 3 10 10 10 10 10 10 10 19 29 29 26 29 32 29 29 32 26 23 23 26 32 42 48 48 48 42 39 45 42 39 35 39 45 35 32 26 23
13 10 13 19 13 3 6 6 3 3 3 6 10 10 13 26 26 23 29 32 32 29 29 23 19 23 29 35 42 35 35 48 35 35 35 39 35 29 42 39 35 32 29 23
3 10 16 13 13 6 6 3 3 6 10 13 13 13 19 26 26 29 26 29 29 26 23 19 23 23 23 32 39 39 39 42 35 35 35 26 19 26 23 29 26 16 16 10

GEFSCGP_con_cape1000_342.txt.gz
Probability
0 0 0 0 0 0 0 0 0 0 3 0 0 0 0 0 0 3 3 3 3 3 10 19 19 29 23 19 19 16 13 13 16 16 16 13 6 13 13 13 13 16 16 16
0 0 0 0 0 0 0 0 0 0 0 0 0 0 0 3 3 3 3 3 3 3 13 19 13 23 23 19 19 23 10 13 16 13 16 16 16 16 16 13 10 16 16 16
0 0 0 0 0 0 0 0 0 0 0 0 0 0 0 0 3 3 3 3 3 3 10 13 10 19 29 26 19 32 19 13 16 19 16 16 16 13 16 10 16 16 16 19
0 0 0 0 0 0 0 3 0 0 0 0 0 0 0 3 3 3 3 3 3 3 6 13 10 16 26 26 23 26 19 23 23 26 19 19 16 16 19 19 16 13 13 16
0 0 0 0 0 0 0 3 0 0 0 0 0 0 0 0 6 3 6 3 3 3 6 3 10 13 26 35 39 29 26 29 26 26 26 23 19 16 19 19 19 19 19 16
0 0 0 0 0 0 0 0 0 0 0 0 0 0 0 3 3 10 6 3 3 6 0 3 10 16 26 35 39 39 32 32 23 19 19 23 23 23 19 16 16 19 13 13
0 0 0 0 0 0 0 0 0 0 0 0 0 3 3 6 3 10 3 6 6 6 6 10 10 19 29 29 39 35 35 32 32 23 19 23 19 23 26 19 19 13 16 16
0 0 0 0 0 0 0 0 0 0 0 0 0 0 3 3 3 13 10 10 10 6 6 10 13 19 26 29 26 32 39 39 32 29 26 19 23 29 29 19 19 16 13 13
0 0 0 0 0 0 0 0 0 0 0 0 3 0 0 0 10 10 10 10 10 6 13 10 13 13 19 23 23 26 35 35 29 29 26 23 23 26 26 23 16 13 13 10
0 0 0 0 0 0 0 0 0 0 0 0 0 0 3 3 13 6 10 10 10 10 13 13 10 16 16 16 19 23 23 26 29 29 29 29 26 26 19 23 19 19 13 16
0 0 0 0 0 0 0 0 0 0 0 0 0 0 3 3 13 10 10 3 6 13 10 13 10 13 10 19 23 23 23 23 29 35 35 32 32 29 26 23 19 19 19 16
0 0 0 0 0 0 0 0 0 0 0 0 0 0 3 6 10 10 10 10 13 10 10 6 13 13 13 13 32 26 26 26 29 29 32 35 32 29 32 29 23 16 13 13
0 0 0 0 0 0 0 0 0 0 0 0 0 3 0 3 3 6 10 10 10 10 10 13 13 16 16 19 35 35 29 29 32 29 32 39 29 29 29 32 32 19 19 16
0 0 0 0 0 0 0 0 0 0 0 0 0 3 3 6 3 10 13 10 6 10 13 16 19 16 16 23 16 32 32 39 35 32 32 29 32 29 29 26 29 29 26 23
0 0 0 0 0 0 0 0 0 0 0 0 0 0 3 3 6 10 16 19 16 16 23 26 26 16 6 19 26 23 26 32 32 29 29 26 26 29 29 26 29 29 32 29
0 0 0 0 0 0 0 0 0 0 0 0 0 0 3 6 16 23 19 23 26 16 23 19 13 10 16 23 26 26 29 32 32 32 35 35 26 23 23 26 26 26 29 26
0 0 0 0 0 0 0 0 0 0 0 0 0 3 3 19 23 23 26 23 23 16 23 26 19 26 29 29 32 32 32 29 29 32 32 29 29 19 19 19 26 26 26 29
0 0 0 0 0 0 0 0 0 0 0 0 6 6 13 26 29 23 23 26 26 23 19 26 19 19 26 29 35 29 26 26 29 32 26 23 29 26 23 19 23 19 26 26
0 0 0 0 0 0 0 0 0 3 3 3 3 16 16 19 23 29 32 29 23 19 19 13 23 19 23 19 23 23 26 23 23 26 26 29 23 19 19 19 16 19 19 23
0 0 0 0 0 0 0 0 0 0 3 6 13 16 19 16 19 26 26 26 19 19 13 13 13 10 13 13 13 13 16 19 16 19 23 26 26 23 19 16 16 13 13 13
0 0 0 0 0 0 0 0 0 3 3 6 6 16 16 13 16 26 23 19 13 10 10 6 10 10 10 13 10 13 16 10 10 10 16 16 16 16 16 16 13 13 16 16
0 0 0 0 0 0 0 3 0 3 3 6 13 13 13 13 16 16 10 10 13 10 10 10 10 10 10 10 13 10 13 10 10 6 10 13 13 16 13 10 10 13 16 16
0 0 0 0 0 0 3 3 0 3 6 6 13 10 16 16 10 10 10 10 6 6 10 10 10 10 10 10 10 10 13 6 6 6 10 10 13 13 13 10 10 10 10 16
0 0 0 3 6 3 0 3 6 10 3 3 6 10 13 6 10 10 10 6 6 6 6 6 6 10 10 10 10 10 6 6 6 6 6 10 10 10 13 13 10 10 10 13
0 0 0 3 0 0 3 3 6 10 10 10 10 13 16 13 19 16 10 10 6 3 6 10 10 6 6 10 10 10 3 3 6 3 0 6 6 6 6 10 13 10 6 6
0 0 0 0 0 0 3 3 3 10 6 10 10 16 16 19 13 10 13 10 10 10 6 6 6 6 3 3 6 6 3 0 0 0 0 0 3 6 6 10 3 0 0 0